QZS-3 (MICHIBIKI-3)

Last updated on Wed Sep 09 2026 00:03:01 GMT+0000 (Coordinated Universal Time)

1 42917U 17048A 26251.47021326 -.00000369 00000+0 00000+0 0 9991 2 42917 0.0512 171.1705 0001606 339.9996 132.6153 1.00276453 33090
UTC large
Height (km)
Speed (km/s)
/
Latitude / Longitude
Inclination (degrees)
Orbital Period (minutes)
Azimuth
Elevation
Range (km)
Doppler Factor

Next 0 passes for location: London (51.5072 / 0.1276)

No passes found over London.
QZS-3 (MICHIBIKI-3)